Location: Perryvale
(54.4667°N, 113.3833°W)
Time: 00:19:48
(UTC+00:00)

Vanguard 1 - Pass Details

Date: 25 May 2024
Orbit: 652 x 3825 km, 34.2° (Epoch: 13 June)

Event Time Altitude Azimuth Distance (km) Brightness Sun altitude
Rises 06:39:26 0° 254° (WSW) 5,176 13.7 -13.7°
Reaches altitude 10° 06:42:48 10° 244° (WSW) 4,573 13.3 -13.8°
Maximum altitude 06:54:13 32° 188° (S) 4,150 12.7 -14.1°
Drops below altitude 10° 07:11:03 10° 136° (SE) 6,740 13.9 -14.4°
Sets 07:17:35 0° 129° (SE) 7,931 14.3 -14.4°
